Regional Weather Roundup
Issued by NWS

Home | Current Version | Previous Version | Graphics & Text | Print | Product List | Glossary On
Versions: 1 2 3 4 5 6 7 8 9 10 11 12 13 14 15 16 17 18 19 20 21 22 23 24 25 26 27
000
ASUS45 KBOU 160307
RWRCO

WEATHER ROUNDUP FOR COLORADO
NATIONAL WEATHER SERVICE DENVER/BOULDER CO
800 PM MST SUN JAN 15 2017

NOTE: "FAIR" INDICATES FEW OR NO CLOUDS BELOW 12000 FEET WITH NO
SIGNIFICANT WEATHER AND/OR OBSTRUCTIONS TO VISIBILITY.

COZ001>005-013-030-031-160400-
...NORTHWEST COLORADO...

CITY           SKY/WX    TMP DP  RH WIND       PRES   REMARKS
CRAIG          CLOUDY    21  16  81 CALM      30.01F
HAYDEN         CLOUDY    19  16  86 W5        29.99S VSB 3/4 WCI  13
MEEKER         CLOUDY    27  23  85 W3        29.99R
MOUNT WERNER   NOT AVBL
STEAMBOAT SPGS CLOUDY    22  20  95 CALM      29.97F
WALDEN           N/A    N/A N/A N/A CALM      29.97F VSB 3/4
$$

COZ006>008-011-160400-
...WEST CENTRAL VALLEYS...

CITY           SKY/WX    TMP DP  RH WIND       PRES   REMARKS
GRAND JUNCTION MOCLDY    37  30  75 NW3       29.94R
MONTROSE       CLOUDY    36  34  92 CALM      29.95S
EAGLE          CLOUDY    28  25  86 CALM      29.96R
RIFLE          CLOUDY    32  25  75 W9        29.95S WCI  24
DELTA          CLOUDY    40  36  84 CALM      29.94S
NUCLA          CLOUDY    36  32  87 NW5       29.96S
$$

COZ017>023-064>068-160400-
...SOUTHWEST COLORADO...

CITY           SKY/WX    TMP DP  RH WIND       PRES   REMARKS
DURANGO        CLOUDY    38  33  82 SW7       29.83S
CORTEZ         CLOUDY    37  35  92 N5        29.90S
PAGOSA SPRINGS CLOUDY    36  36 100 CALM      29.86S FOG
TELLURIDE      CLOUDY    31  30  99 CALM      29.93S
WOLF CREEK PAS CLOUDY    23  23 100 CALM      29.97S
$$

COZ009-010-012-014-032>034-037-058>063-160400-
...CENTRAL COLORADO...

CITY           SKY/WX    TMP DP  RH WIND       PRES   REMARKS
ASPEN          CLOUDY    30  27  88 CALM      29.91R
BUENA VISTA    CLOUDY    30  28  92 CALM      29.92S
COPPER MTN     SNOW      28  23  80 CALM      29.96S VSB 1/4
BERTHOUD PASS  NOT AVBL
COTTONWOOD PAS LGT SNOW  30  30 100 CALM      29.93S VSB 1
GUNNISON       FLURRIES  23  19  85 CALM      29.92S
KREMMLING      CLOUDY    27  23  86 N3        29.97S
LEADVILLE      LGT SNOW  25  23  92 S3        29.90S FOG
MONARCH PASS   CLOUDY    23  21  93 NE17      30.02S WCI   9
SALIDA         CLOUDY    33  32  94 CALM      29.99S
SUNLIGHT       CLOUDY    23  21  93 NE7       29.98S FOG     WCI  15
WILKERSON PASS CLOUDY    23  21  93 NE7       29.97S FOG     WCI  15
$$

COZ069>075-160400-
...SAN LUIS VALLEY/SANGRE DE CRISTO MOUNTAINS...

CITY           SKY/WX    TMP DP  RH WIND       PRES   REMARKS
ALAMOSA        CLOUDY    32  32 100 CALM      29.85S
LA VETA PASS   FOG       23  21  93 SW3       29.89F VSB 1/2
SAGUACHE       CLOUDY    32  32 100 NW6       29.86S WCI  26
$$

COZ035-036-038>040-160400-
...NORTHERN COLORADO FRONT RANGE...

CITY           SKY/WX    TMP DP  RH WIND       PRES   REMARKS
DENVER INTL AP FLURRIES  32  26  78 N5        29.96S WCI  27
DMNS CITY PARK   N/A     33  27  78 N5        29.96F WCI  29
AURORA         FLURRIES  31  31  99 N5        29.96R WCI  26
FRONT RANGE AP CLOUDY    32  28  86 NW5       29.96S WCI  27
ERIE MUNI ARPT CLOUDY    33  30  88 CALM      29.97S
BOULDER MUN AP CLOUDY    32  32 100 W5        29.96S WCI  27
CENTENNIAL     FLURRIES  31  28  89 W6        29.95S WCI  25
BROOMFIELD     CLOUDY    32  28  86 W5        29.96S WCI  27
FORT COLLINS   CLOUDY    34  27  75 CALM      29.98S
LONGMONT       CLOUDY    35  30  82 CALM      29.99S
$$

COZ041-046-047-076>085-087-088-160400-
...PIKES PEAK/PALMER DIVIDE AND SOUTHERN FOOTHILLS...

CITY           SKY/WX    TMP DP  RH WIND       PRES   REMARKS
COLO. SPRINGS  CLOUDY    31  29  92 CALM      29.92F FOG
A. F. ACADEMY  CLOUDY    31  28  87 N13       29.90F WCI  21
SCHRIEVER AFB  NOT AVBL
ELLICOTT       CLOUDY   N/A N/A N/A N5        29.91F
FALCON         CLOUDY    31  27  85 N5        29.92S WCI  26
FORT CARSON    FOG       30  30 100 VRB3      29.94S VSB 1/8
LIMON          CLOUDY    29  27  92 N6        29.94F WCI  23
MONUMENT HILL  CLOUDY    27  27 100 NW8       29.94S FOG     WCI  18
TRINIDAD       LGT SNOW  30  27  88 NW5       29.92R VSB 1   WCI  25
$$

COZ042>045-048>051-090-091-160400-
...NORTHEAST COLORADO...

CITY           SKY/WX    TMP DP  RH WIND       PRES   REMARKS
GREELEY ARPT   CLOUDY    33  28  81 CALM      29.98F
AKRON          CLOUDY    28  25  88 NW6       29.96S FOG     WCI  22
BURLINGTON     FOG       31  30  96 NE7       29.96F VSB 1/2 WCI  24
WRAY           CLOUDY   N/A N/A N/A CALM      29.99
STERLING       CLOUDY    30  30 100 N5        29.98S FOG     WCI  25
HOLYOKE        LGT SNOW  34  32  93 CALM      29.99F
FORT MORGAN    CLOUDY    29  27  90 CALM      29.98F
$$

COZ086-089-092>099-160400-
...SOUTHEAST COLORADO...

CITY           SKY/WX    TMP DP  RH WIND       PRES   REMARKS
PUEBLO         CLOUDY    34  31  88 CALM      29.93F FOG
LA JUNTA       CLOUDY    33  31  92 N5        29.94S FOG     WCI  29
LAMAR          CLOUDY    32  30  92 E3        29.94S
SPRINGFIELD      N/A     29  29 100 N13       29.91F WCI  19
$$




USA.gov is the U.S. government's official web portal to all federal, state and local government web resources and services.